Regional Weather Roundup
Issued by NWS Albany, NY

Home | Current Version | Previous Version | Text Only | Print | Product List | Glossary On
Versions: 1 2 3 4 5 6 7 8 9 10 11 12 13 14 15 16 17 18 19 20 21 22 23 24 25 26 27 28 29 30 31 32 33 34 35 36 37 38 39 40 41 42 43 44 45 46 47 48 49 50
000
ASUS41 KALY 190910
RWRALY

NEW YORK STATE HOURLY WEATHER ROUNDUP
NATIONAL WEATHER SERVICE ALBANY NY
500 AM EDT TUE SEP 19 2017

NOTE: "FAIR" INDICATES FEW OR NO CLOUDS BELOW 12,000 FEET WITH NO
SIGNIFICANT WEATHER AND/OR NO OBSTRUCTIONS TO VISIBILITY.

NYZ032-033-038>043-046>054-057>066-NYZ062>081-082-084-191000-
EAST


CITY           SKY/WX    TMP DP  RH WIND       PRES   REMARKS
ALBANY         PTCLDY    62  60  93 CALM      30.11S
GLENS FALLS    CLOUDY    56  55  97 CALM      30.12R FOG
POUGHKEEPSIE   CLOUDY    66  62  87 N5        30.07S
NEWBURGH       CLOUDY    66  64  94 VRB5      30.09F
MONTGOMERY     CLOUDY    65  63  93 N7        30.08S
WHITE PLAINS   MOCLDY    69  65  86 NE8       30.04F
ISLIP          CLOUDY    70  67  90 NE16      30.01F
NEW YORK CITY  CLOUDY    71  68  90 NE16      30.01F
CENTRAL PARK   CLOUDY    71  66  84 NE8       30.05F
$$

NYZ005>009-017-018-044>046-055-056-191000-
CENTRAL


CITY           SKY/WX    TMP DP  RH WIND       PRES   REMARKS
FULTON         CLEAR     65  63  93 SE3       30.06R
SYRACUSE       MOCLDY    63  62  97 E7        30.06R
ROME           CLOUDY    62  61  96 SE5       30.11R
ELMIRA         PTCLDY    58  57  97 CALM      30.08S
BINGHAMTON     CLEAR     60  59  96 CALM      30.11R
MONTICELLO     PTCLDY    61  61 100 E3        30.12F
$$

NYZ026>034-041>043-087-191000-
NORTH


CITY           SKY/WX    TMP DP  RH WIND       PRES   REMARKS
WATERTOWN      CLEAR     65  62  90 CALM      30.04S
FORT DRUM      NOT AVBL
OGDENSBURG     FAIR      64  63  96 CALM      30.04S
MASSENA        PTCLDY    59  59 100 CALM      30.06S FOG
SARANAC LAKE   CLOUDY    63  63 100 SW5       30.11R
PLATTSBURGH    PTCLDY    67  61  81 SE13      30.08R
$$

NYZ001>004-010>016-019>021-085-191000-
WEST


CITY           SKY/WX    TMP DP  RH WIND       PRES   REMARKS
NIAGARA FALLS  MOCLDY    67  62  84 N3        30.01F HAZE
BUFFALO        MOCLDY    67  64  90 CALM      30.02S
DUNKIRK        CLEAR     64  62  93 CALM      30.02S
JAMESTOWN      CLEAR     63  62  97 S6        30.08S
WELLSVILLE     CLEAR     61  58  90 SE5       30.11S FOG
ROCHESTER      CLOUDY    66  64  93 W5        30.04R
PENN YAN       CLEAR     61  58  90 S5        30.07R
$$

             KEY
       WCI = WIND CHILL INDEX
       VSB = VISIBILITY
       HX  = HEAT INDEX
$$



USA.gov is the U.S. government's official web portal to all federal, state and local government web resources and services.